Location: Caltech
(34.1382°N, 118.1253°W)
Time: 01:12:43
(UTC-08:00)

Cosmos 1606 - Visible Passes

Search period start: 28 January 2015 00:00
Search period end: 07 February 2015 00:00
Orbit: 515 x 544 km, 82.5° (Epoch: 27 January)

Date Brightness Start Highest point End Pass type
(mag) Time Alt. Az. Time Alt. Az. Time Alt. Az.
03 Feb 5.6 19:50:23 10° NNW 19:50:49 12° NNW 19:50:49 12° NNW visible
04 Feb 4.5 18:05:16 10° NE 18:07:02 13° ENE 18:09:01 10° ESE visible
04 Feb 4.4 19:39:38 10° NNW 19:43:14 33° W 19:46:47 10° SSW visible
05 Feb 4.6 17:54:52 10° NE 17:56:18 12° ENE 17:57:58 10° E visible
05 Feb 4.3 19:28:53 10° NNW 19:32:33 36° W 19:36:11 10° SSW visible
06 Feb 4.1 19:18:08 10° NNW 19:21:52 39° W 19:25:34 10° SSW visible
